Time,TemperatureF,DewpointF,PressureIn,WindDirection,WindDirectionDegrees,WindSpeedMPH,WindSpeedGustMPH,Humidity,HourlyPrecipIn,Conditions,Clouds,dailyrainin,SoftwareType,DateUTC
2013-08-10 00:02:00,74.0,-99.9,-100.00,North,-999,-999.0,-999.0,-999,0.00,,,-99.99,,2013-08-10 04:02:00,
2013-08-10 00:12:00,74.0,-99.9,-100.00,North,-999,-999.0,-999.0,-999,0.00,,,-99.99,,2013-08-10 04:12:00,
2013-08-10 00:22:00,74.0,-99.9,-100.00,North,-999,-999.0,-999.0,-999,0.00,,,-99.99,,2013-08-10 04:22:00,
2013-08-10 00:30:00,73.0,-99.9,-100.00,North,-999,-999.0,-999.0,-999,0.00,,,1.17,,2013-08-10 04:30:00,
2013-08-10 01:02:00,73.0,-99.9,-100.00,North,-999,-999.0,-999.0,-999,0.00,,,1.17,,2013-08-10 05:02:00,
2013-08-10 01:11:00,73.0,-99.9,-100.00,North,-999,-999.0,-999.0,-999,0.00,,,1.17,,2013-08-10 05:11:00,
2013-08-10 01:22:00,73.0,-99.9,-100.00,North,-999,-999.0,-999.0,-999,0.00,,,1.17,,2013-08-10 05:22:00,
2013-08-10 01:30:00,72.0,-99.9,-100.00,North,-999,-999.0,-999.0,-999,0.00,,,1.17,,2013-08-10 05:30:00,
2013-08-10 01:43:00,73.0,-99.9,-100.00,North,-999,-999.0,-999.0,-999,0.00,,,1.17,,2013-08-10 05:43:00,
2013-08-10 02:02:00,72.0,-99.9,-100.00,North,-999,-999.0,-999.0,-999,0.00,,,1.17,,2013-08-10 06:02:00,
2013-08-10 02:11:00,72.0,-99.9,-100.00,North,-999,-999.0,-999.0,-999,0.00,,,1.17,,2013-08-10 06:11:00,
2013-08-10 02:22:00,72.0,-99.9,-100.00,North,-999,-999.0,-999.0,-999,0.00,,,1.17,,2013-08-10 06:22:00,
2013-08-10 02:30:00,71.0,-99.9,-100.00,North,-999,-999.0,-999.0,-999,0.00,,,-99.99,,2013-08-10 06:30:00,
2013-08-10 03:02:00,71.0,-99.9,-100.00,North,-999,-999.0,-999.0,-999,0.00,,,-99.99,,2013-08-10 07:02:00,
2013-08-10 03:13:00,71.0,-99.9,-100.00,North,-999,-999.0,-999.0,-999,0.00,,,-99.99,,2013-08-10 07:13:00,
2013-08-10 03:22:00,71.0,-99.9,-100.00,North,-999,-999.0,-999.0,-999,0.00,,,-99.99,,2013-08-10 07:22:00,
2013-08-10 03:30:00,70.0,-99.9,-100.00,North,-999,-999.0,-999.0,-999,0.00,,,1.17,,2013-08-10 07:30:00,
2013-08-10 04:02:00,70.0,-99.9,-100.00,North,-999,-999.0,-999.0,-999,0.00,,,1.17,,2013-08-10 08:02:00,
2013-08-10 04:12:00,70.0,-99.9,-100.00,North,-999,-999.0,-999.0,-999,0.00,,,1.17,,2013-08-10 08:12:00,
2013-08-10 04:22:00,70.0,-99.9,-100.00,North,-999,-999.0,-999.0,-999,0.00,,,1.17,,2013-08-10 08:22:00,
2013-08-10 04:30:00,68.0,-99.9,-100.00,North,-999,-999.0,-999.0,-999,0.00,,,1.17,,2013-08-10 08:30:00,
2013-08-10 05:02:00,68.0,-99.9,-100.00,North,-999,-999.0,-999.0,-999,0.00,,,1.17,,2013-08-10 09:02:00,
2013-08-10 05:12:00,68.0,-99.9,-100.00,North,-999,-999.0,-999.0,-999,0.00,,,1.17,,2013-08-10 09:12:00,
2013-08-10 05:22:00,68.0,-99.9,-100.00,North,-999,-999.0,-999.0,-999,0.00,,,1.17,,2013-08-10 09:22:00,
2013-08-10 05:30:00,66.0,-99.9,-100.00,North,-999,-999.0,-999.0,-999,0.00,,,1.17,,2013-08-10 09:30:00,
2013-08-10 06:02:00,66.0,-99.9,-100.00,North,-999,-999.0,-999.0,-999,0.00,,,1.17,,2013-08-10 10:02:00,
2013-08-10 06:12:00,66.0,-99.9,-100.00,North,-999,-999.0,-999.0,-999,0.00,,,1.17,,2013-08-10 10:12:00,
2013-08-10 06:22:00,66.0,-99.9,-100.00,North,-999,-999.0,-999.0,-999,0.00,,,1.17,,2013-08-10 10:22:00,
2013-08-10 06:30:00,65.0,-99.9,-100.00,North,-999,-999.0,-999.0,-999,0.00,,,1.17,,2013-08-10 10:30:00,
2013-08-10 07:02:00,65.0,-99.9,-100.00,North,-999,-999.0,-999.0,-999,0.00,,,1.17,,2013-08-10 11:02:00,
2013-08-10 07:12:00,65.0,-99.9,-100.00,North,-999,-999.0,-999.0,-999,0.00,,,1.17,,2013-08-10 11:12:00,
2013-08-10 07:22:00,65.0,-99.9,-100.00,North,-999,-999.0,-999.0,-999,0.00,,,1.17,,2013-08-10 11:22:00,
2013-08-10 07:30:00,68.0,-99.9,-100.00,North,-999,-999.0,-999.0,-999,0.00,,,1.16,,2013-08-10 11:30:00,
2013-08-10 08:11:00,68.0,-99.9,-100.00,North,-999,-999.0,-999.0,-999,0.00,,,1.16,,2013-08-10 12:11:00,
2013-08-10 08:22:00,68.0,-99.9,-100.00,North,-999,-999.0,-999.0,-999,0.00,,,1.16,,2013-08-10 12:22:00,
2013-08-10 08:30:00,70.0,-99.9,-100.00,North,-999,-999.0,-999.0,-999,0.00,,,1.11,,2013-08-10 12:30:00,
2013-08-10 09:02:00,70.0,-99.9,-100.00,North,-999,-999.0,-999.0,-999,0.00,,,1.11,,2013-08-10 13:02:00,
2013-08-10 09:11:00,70.0,-99.9,-100.00,North,-999,-999.0,-999.0,-999,0.00,,,1.11,,2013-08-10 13:11:00,
2013-08-10 09:22:00,70.0,-99.9,-100.00,North,-999,-999.0,-999.0,-999,0.00,,,1.11,,2013-08-10 13:22:00,
2013-08-10 09:30:00,72.0,-99.9,-100.00,North,-999,-999.0,-999.0,-999,0.00,,,1.09,,2013-08-10 13:30:00,
2013-08-10 10:02:00,72.0,-99.9,-100.00,North,-999,-999.0,-999.0,-999,0.00,,,1.09,,2013-08-10 14:02:00,
2013-08-10 10:12:00,72.0,-99.9,-100.00,North,-999,-999.0,-999.0,-999,0.00,,,1.09,,2013-08-10 14:12:00,
2013-08-10 10:22:00,72.0,-99.9,-100.00,North,-999,-999.0,-999.0,-999,0.00,,,1.09,,2013-08-10 14:22:00,
2013-08-10 10:30:00,76.0,-99.9,-100.00,North,-999,-999.0,-999.0,-999,0.00,,,1.03,,2013-08-10 14:30:00,
2013-08-10 11:02:00,76.0,-99.9,-100.00,North,-999,-999.0,-999.0,-999,0.00,,,1.03,,2013-08-10 15:02:00,
2013-08-10 11:12:00,76.0,-99.9,-100.00,North,-999,-999.0,-999.0,-999,0.00,,,1.03,,2013-08-10 15:12:00,
2013-08-10 11:22:00,76.0,-99.9,-100.00,North,-999,-999.0,-999.0,-999,0.00,,,1.03,,2013-08-10 15:22:00,
2013-08-10 11:30:00,76.0,-99.9,-100.00,North,-999,-999.0,-999.0,-999,0.00,,,0.93,,2013-08-10 15:30:00,
2013-08-10 12:02:00,76.0,-99.9,-100.00,North,-999,-999.0,-999.0,-999,0.00,,,0.93,,2013-08-10 16:02:00,
2013-08-10 12:12:00,76.0,-99.9,-100.00,North,-999,-999.0,-999.0,-999,0.00,,,0.93,,2013-08-10 16:12:00,
2013-08-10 12:22:00,76.0,-99.9,-100.00,North,-999,-999.0,-999.0,-999,0.00,,,0.93,,2013-08-10 16:22:00,
2013-08-10 12:30:00,77.0,-99.9,-100.00,North,-999,-999.0,-999.0,-999,0.00,,,0.72,,2013-08-10 16:30:00,
2013-08-10 13:02:00,77.0,-99.9,-100.00,North,-999,-999.0,-999.0,-999,0.00,,,0.72,,2013-08-10 17:02:00,
2013-08-10 13:12:00,77.0,-99.9,-100.00,North,-999,-999.0,-999.0,-999,0.00,,,0.72,,2013-08-10 17:12:00,
2013-08-10 13:22:00,77.0,-99.9,-100.00,North,-999,-999.0,-999.0,-999,0.00,,,0.72,,2013-08-10 17:22:00,
2013-08-10 13:30:00,78.0,-99.9,-100.00,North,-999,-999.0,-999.0,-999,0.00,,,0.36,,2013-08-10 17:30:00,
2013-08-10 13:43:00,79.0,-99.9,-100.00,North,-999,-999.0,-999.0,-999,0.00,,,0.54,,2013-08-10 17:43:00,
2013-08-10 14:02:00,78.0,-99.9,-100.00,North,-999,-999.0,-999.0,-999,0.00,,,0.36,,2013-08-10 18:02:00,
2013-08-10 14:11:00,78.0,-99.9,-100.00,North,-999,-999.0,-999.0,-999,0.00,,,0.36,,2013-08-10 18:11:00,
2013-08-10 14:23:00,78.0,-99.9,-100.00,North,-999,-999.0,-999.0,-999,0.00,,,0.36,,2013-08-10 18:23:00,
2013-08-10 14:30:00,78.0,-99.9,-100.00,North,-999,-999.0,-999.0,-999,0.00,,,0.31,,2013-08-10 18:30:00,
2013-08-10 15:02:00,78.0,-99.9,-100.00,North,-999,-999.0,-999.0,-999,0.00,,,0.31,,2013-08-10 19:02:00,
2013-08-10 15:12:00,78.0,-99.9,-100.00,North,-999,-999.0,-999.0,-999,0.00,,,0.31,,2013-08-10 19:12:00,
2013-08-10 15:22:00,78.0,-99.9,-100.00,North,-999,-999.0,-999.0,-999,0.00,,,0.31,,2013-08-10 19:22:00,
2013-08-10 15:30:00,79.0,-99.9,-100.00,North,-999,-999.0,-999.0,-999,0.00,,,0.08,,2013-08-10 19:30:00,
2013-08-10 16:02:00,79.0,-99.9,-100.00,North,-999,-999.0,-999.0,-999,0.00,,,0.08,,2013-08-10 20:02:00,
2013-08-10 16:12:00,79.0,-99.9,-100.00,North,-999,-999.0,-999.0,-999,0.00,,,0.08,,2013-08-10 20:12:00,
2013-08-10 16:22:00,79.0,-99.9,-100.00,North,-999,-999.0,-999.0,-999,0.00,,,0.08,,2013-08-10 20:22:00,
2013-08-10 16:30:00,79.0,-99.9,-100.00,North,-999,-999.0,-999.0,-999,0.00,,,0.04,,2013-08-10 20:30:00,
2013-08-10 17:02:00,79.0,-99.9,-100.00,North,-999,-999.0,-999.0,-999,0.00,,,0.04,,2013-08-10 21:02:00,
2013-08-10 17:12:00,79.0,-99.9,-100.00,North,-999,-999.0,-999.0,-999,0.00,,,0.04,,2013-08-10 21:12:00,
2013-08-10 17:22:00,79.0,-99.9,-100.00,North,-999,-999.0,-999.0,-999,0.00,,,0.04,,2013-08-10 21:22:00,
2013-08-10 17:30:00,78.0,-99.9,-100.00,North,-999,-999.0,-999.0,-999,0.00,,,0.00,,2013-08-10 21:30:00,
2013-08-10 18:02:00,78.0,-99.9,-100.00,North,-999,-999.0,-999.0,-999,0.00,,,0.00,,2013-08-10 22:02:00,
2013-08-10 18:12:00,78.0,-99.9,-100.00,North,-999,-999.0,-999.0,-999,0.00,,,0.00,,2013-08-10 22:12:00,
2013-08-10 18:22:00,78.0,-99.9,-100.00,North,-999,-999.0,-999.0,-999,0.00,,,0.00,,2013-08-10 22:22:00,
2013-08-10 18:30:00,76.0,-99.9,-100.00,North,-999,-999.0,-999.0,-999,0.00,,,0.00,,2013-08-10 22:30:00,
2013-08-10 19:02:00,76.0,-99.9,-100.00,North,-999,-999.0,-999.0,-999,0.00,,,0.00,,2013-08-10 23:02:00,
2013-08-10 19:12:00,76.0,-99.9,-100.00,North,-999,-999.0,-999.0,-999,0.00,,,0.00,,2013-08-10 23:12:00,
2013-08-10 19:22:00,76.0,-99.9,-100.00,North,-999,-999.0,-999.0,-999,0.00,,,0.00,,2013-08-10 23:22:00,
2013-08-10 19:30:00,73.0,-99.9,-100.00,North,-999,-999.0,-999.0,-999,0.00,,,0.00,,2013-08-10 23:30:00,
2013-08-10 19:43:00,74.0,-99.9,-100.00,North,-999,-999.0,-999.0,-999,0.00,,,0.00,,2013-08-10 23:43:00,
2013-08-10 20:02:00,73.0,-99.9,-100.00,North,-999,-999.0,-999.0,-999,0.00,,,0.00,,2013-08-11 00:02:00,
2013-08-10 20:11:00,73.0,-99.9,-100.00,North,-999,-999.0,-999.0,-999,0.00,,,0.00,,2013-08-11 00:11:00,
2013-08-10 20:22:00,73.0,-99.9,-100.00,North,-999,-999.0,-999.0,-999,0.00,,,0.00,,2013-08-11 00:22:00,
2013-08-10 20:30:00,70.0,-99.9,-100.00,North,-999,-999.0,-999.0,-999,0.00,,,0.00,,2013-08-11 00:30:00,
2013-08-10 21:02:00,70.0,-99.9,-100.00,North,-999,-999.0,-999.0,-999,0.00,,,0.00,,2013-08-11 01:02:00,
2013-08-10 21:12:00,70.0,-99.9,-100.00,North,-999,-999.0,-999.0,-999,0.00,,,0.00,,2013-08-11 01:12:00,
2013-08-10 21:22:00,70.0,-99.9,-100.00,North,-999,-999.0,-999.0,-999,0.00,,,0.00,,2013-08-11 01:22:00,
2013-08-10 21:30:00,69.0,-99.9,-100.00,North,-999,-999.0,-999.0,-999,0.00,,,0.00,,2013-08-11 01:30:00,
2013-08-10 22:02:00,69.0,-99.9,-100.00,North,-999,-999.0,-999.0,-999,0.00,,,0.00,,2013-08-11 02:02:00,
2013-08-10 22:12:00,69.0,-99.9,-100.00,North,-999,-999.0,-999.0,-999,0.00,,,0.00,,2013-08-11 02:12:00,
2013-08-10 22:22:00,69.0,-99.9,-100.00,North,-999,-999.0,-999.0,-999,0.00,,,0.00,,2013-08-11 02:22:00,
2013-08-10 22:30:00,66.0,-99.9,-100.00,North,-999,-999.0,-999.0,-999,0.00,,,0.00,,2013-08-11 02:30:00,
2013-08-10 23:08:00,66.0,-99.9,-100.00,North,-999,-999.0,-999.0,-999,0.00,,,0.00,,2013-08-11 03:08:00,
2013-08-10 23:30:00,63.0,-99.9,-100.00,North,-999,-999.0,-999.0,-999,0.00,,,0.00,,2013-08-11 03:30:00,